CW0354 Weather Reports


Display with metric or nautical units.
time (UTC)temp
F
wind
direction
speed
MPH
gust
MPH
rain 1hr
in
rain 24hr
in
rain mn
in
humidity
%
barometer
mb
20260506090908 57 240 12.0 20.0 0.00 0.00 0.00 86 1010.2
20260506090410 57 233 11.0 20.0 0.00 0.00 0.00 86 1010.4
20260506085911 57 238 12.0 21.0 0.00 0.00 0.00 86 1010.3
20260506083912 57 236 13.0 25.0 0.00 0.00 0.00 85 1010.4
20260506083410 57 239 13.0 25.0 0.00 0.00 0.00 85 1010.3
20260506082907 57 234 13.0 21.0 0.00 0.00 0.00 85 1010.3
20260506081910 57 233 12.0 22.0 0.00 0.00 0.00 85 1010.5
20260506081412 57 239 12.0 23.0 0.00 0.00 0.00 85 1010.5
20260506080916 58 237 12.0 26.0 0.00 0.00 0.00 85 1010.5
20260506080407 57 238 12.0 25.0 0.00 0.00 0.00 85 1010.6
20260506072906 58 238 12.0 24.0 0.00 0.00 0.00 84 1010.7
20260506072411 58 241 12.0 24.0 0.00 0.00 0.00 84 1010.8
20260506071910 58 244 10.0 22.0 0.00 0.00 0.00 84 1010.9
20260506071410 57 239 12.0 18.0 0.00 0.00 0.00 84 1010.9
20260506070910 58 240 10.0 20.0 0.00 0.00 0.00 84 1010.9
20260506070410 58 246 9.0 22.0 0.00 0.00 0.00 84 1010.9
20260506062412 58 247 10.0 22.0 0.00 0.00 0.00 83 1010.8
20260506061907 58 242 12.0 23.0 0.00 0.00 0.00 82 1010.7
20260506061406 58 251 13.0 24.0 0.00 0.00 0.00 82 1010.8
20260506060912 58 241 13.0 22.0 0.00 0.00 0.00 82 1010.8
20260506060414 58 243 13.0 23.0 0.00 0.00 0.00 82 1010.7
20260506051410 58 244 12.0 20.0 0.00 0.00 0.00 82 1010.9
20260506050906 59 244 13.0 20.0 0.00 0.00 0.00 82 1011.0
20260506050410 58 243 12.0 22.0 0.00 0.00 0.00 82 1011.0
20260506044407 58 243 12.0 18.0 0.00 0.00 0.00 81 1011.1
20260506043908 58 247 12.0 20.0 0.00 0.00 0.00 81 1011.1
20260506042909 59 245 11.0 20.0 0.00 0.00 0.00 81 1011.1
20260506041907 59 246 12.0 24.0 0.00 0.00 0.00 81 1011.1
20260506041408 59 250 14.0 24.0 0.00 0.00 0.00 81 1011.1
20260506040941 59 245 14.0 24.0 0.00 0.00 0.00 81 1011.1
20260506040408 59 229 13.0 26.0 0.00 0.00 0.00 81 1010.9
20260506035906 59 252 13.0 25.0 0.00 0.00 0.00 81 1011.0
20260506035409 59 243 13.0 22.0 0.00 0.00 0.00 81 1011.0
20260506034410 59 245 12.0 24.0 0.00 0.00 0.00 81 1011.1
20260506033410 58 247 12.0 17.0 0.00 0.00 0.00 80 1011.1
20260506031908 59 246 12.0 25.0 0.00 0.00 0.00 80 1011.1
20260506031410 59 242 10.0 22.0 0.00 0.00 0.00 80 1011.1
20260506030410 59 232 12.0 20.0 0.00 0.00 0.00 80 1011.1
20260506025911 59 249 10.0 20.0 0.00 0.00 0.00 80 1011.2
20260506025409 59 246 11.0 17.0 0.00 0.00 0.00 80 1011.3
20260506024910 59 240 12.0 20.0 0.00 0.00 0.00 80 1011.3
20260506024410 59 244 12.0 21.0 0.00 0.00 0.00 80 1011.2
20260506023909 59 248 11.0 21.0 0.00 0.00 0.00 79 1011.2
20260506023410 59 246 11.0 22.0 0.00 0.00 0.00 79 1011.2
20260506022915 59 238 11.0 22.0 0.00 0.00 0.00 79 1011.3
20260506022409 59 246 12.0 22.0 0.00 0.00 0.00 79 1011.2
20260506021910 59 248 12.0 22.0 0.00 0.00 0.00 79 1011.2
20260506021410 59 249 13.0 23.0 0.00 0.00 0.00 79 1011.1
20260506020908 59 239 13.0 20.0 0.00 0.00 0.00 79 1011.1
20260506020410 59 240 12.0 23.0 0.00 0.00 0.00 78 1011.2
20260506015912 59 253 10.0 20.0 0.00 0.00 0.00 78 1011.2
20260506015409 59 244 13.0 22.0 0.00 0.00 0.00 78 1011.0
20260506014910 59 245 11.0 21.0 0.00 0.00 0.00 78 1011.0
20260506014410 59 242 11.0 17.0 0.00 0.00 0.00 78 1011.0
20260506013906 59 236 11.0 23.0 0.00 0.00 0.00 77 1011.1
20260506013410 59 235 12.0 21.0 0.00 0.00 0.00 77 1010.9
20260506012408 59 232 12.0 25.0 0.00 0.00 0.00 76 1010.7
20260506011410 60 230 12.0 25.0 0.00 0.00 0.00 76 1010.8
20260506010912 60 244 10.0 22.0 0.00 0.00 0.00 75 1010.8
20260506010410 60 243 14.0 25.0 0.00 0.00 0.00 75 1010.7
20260506005906 60 247 13.0 24.0 0.00 0.00 0.00 75 1010.7
20260506005409 60 239 14.0 28.0 0.00 0.00 0.00 75 1010.7
20260506004911 60 237 15.0 28.0 0.00 0.00 0.00 75 1010.4
20260506004410 60 236 15.0 29.0 0.00 0.00 0.00 75 1010.5
20260506003910 60 240 14.0 28.0 0.00 0.00 0.00 75 1010.4
20260506003411 60 244 15.0 26.0 0.00 0.00 0.00 75 1010.4
20260506002906 60 236 15.0 26.0 0.00 0.00 0.00 74 1010.4
20260506002413 60 236 13.0 28.0 0.00 0.00 0.00 74 1010.3
20260506001905 60 243 16.0 25.0 0.00 0.00 0.00 74 1010.2
20260506001410 60 241 13.0 25.0 0.00 0.00 0.00 74 1010.1
20260506000910 61 243 14.0 29.0 0.00 0.00 0.00 74 1010.0
20260506000409 60 240 15.0 26.0 0.00 0.00 0.00 74 1009.9
20260505235910 61 229 14.0 26.0 0.00 0.00 0.00 74 1009.8
20260505235409 61 234 14.0 25.0 0.00 0.00 0.00 73 1009.8
20260505234911 61 232 14.0 26.0 0.00 0.00 0.00 73 1009.6
20260505234411 61 240 15.0 23.0 0.00 0.00 0.00 73 1009.4
20260505233907 61 234 16.0 26.0 0.00 0.00 0.00 73 1009.3
20260505233410 61 234 14.0 26.0 0.00 0.00 0.00 72 1009.1
20260505232907 61 226 14.0 29.0 0.00 0.00 0.00 72 1009.2
20260505232409 61 236 15.0 26.0 0.00 0.00 0.00 72 1009.1
20260505231906 61 239 16.0 28.0 0.00 0.00 0.00 72 1009.1
20260505231406 61 242 15.0 24.0 0.00 0.00 0.00 72 1009.1
20260505230911 62 235 16.0 28.0 0.00 0.00 0.00 71 1009.1
20260505230408 62 226 14.0 24.0 0.00 0.00 0.00 71 1009.0
20260505225911 62 241 16.0 26.0 0.00 0.00 0.00 70 1009.1
20260505225412 62 233 14.0 29.0 0.00 0.00 0.00 70 1009.0
20260505224910 63 230 16.0 31.0 0.00 0.00 0.00 69 1008.9
20260505224413 63 234 17.0 26.0 0.00 0.00 0.00 69 1008.8
20260505223909 63 240 16.0 30.0 0.00 0.00 0.00 68 1008.9
20260505223407 63 231 15.0 23.0 0.00 0.00 0.00 68 1008.8
20260505222919 64 231 16.0 25.0 0.00 0.00 0.00 67 1008.9
20260505222406 64 232 14.0 29.0 0.00 0.00 0.00 67 1008.8
20260505221407 64 220 15.0 26.0 0.00 0.00 0.00 66 1008.6
20260505220911 64 215 14.0 30.0 0.00 0.00 0.00 66 1008.6
20260505220407 65 215 16.0 30.0 0.00 0.00 0.00 66 1008.6
20260505215911 65 220 17.0 28.0 0.00 0.00 0.00 65 1008.7
20260505214911 65 219 13.0 31.0 0.00 0.00 0.00 66 1008.6
20260505214410 65 207 13.0 25.0 0.00 0.00 0.00 65 1008.6
20260505213912 65 215 12.0 26.0 0.00 0.00 0.00 65 1008.5
20260505212910 65 215 14.0 26.0 0.00 0.00 0.00 65 1008.4
20260505212408 65 219 13.0 25.0 0.00 0.00 0.00 65 1008.5
20260505211910 65 208 15.0 24.0 0.00 0.00 0.00 64 1008.4
20260505211411 65 207 15.0 25.0 0.00 0.00 0.00 64 1008.4
20260505210911 65 213 16.0 29.0 0.00 0.00 0.00 64 1008.4
20260505210406 66 220 16.0 26.0 0.00 0.00 0.00 63 1008.4
20260505205909 65 209 16.0 25.0 0.00 0.00 0.00 64 1008.3
20260505205406 66 209 14.0 25.0 0.00 0.00 0.00 63 1008.4
20260505204910 66 211 14.0 28.0 0.00 0.00 0.00 63 1008.4
20260505204411 66 218 13.0 28.0 0.00 0.00 0.00 63 1008.3
20260505203410 66 206 13.0 24.0 0.00 0.00 0.00 63 1008.4
20260505202910 66 208 14.0 24.0 0.00 0.00 0.00 63 1008.5
20260505202417 66 212 13.0 26.0 0.00 0.00 0.00 63 1008.5
20260505201910 66 209 13.0 26.0 0.00 0.00 0.00 63 1008.6
20260505201410 66 203 13.0 22.0 0.00 0.00 0.00 64 1008.6
20260505200908 66 213 15.0 30.0 0.00 0.00 0.00 64 1008.7
20260505195911 66 217 14.0 25.0 0.00 0.00 0.00 63 1008.8
20260505195410 66 207 14.0 24.0 0.00 0.00 0.00 63 1008.8
20260505194410 66 210 12.0 23.0 0.00 0.00 0.00 63 1009.0
20260505193908 67 211 14.0 23.0 0.00 0.00 0.00 62 1009.2
20260505193410 67 217 13.0 23.0 0.00 0.00 0.00 62 1009.2
20260505192911 67 213 12.0 22.0 0.00 0.00 0.00 62 1009.3
20260505192412 67 212 12.0 20.0 0.00 0.00 0.00 62 1009.4
20260505191910 67 209 12.0 23.0 0.00 0.00 0.00 62 1009.4
20260505191410 67 209 11.0 20.0 0.00 0.00 0.00 62 1009.5
20260505190906 67 214 12.0 22.0 0.00 0.00 0.00 62 1009.6
20260505190411 67 210 13.0 23.0 0.00 0.00 0.00 62 1009.7
20260505185908 67 220 11.0 20.0 0.00 0.00 0.00 62 1009.8
20260505185406 67 210 12.0 22.0 0.00 0.00 0.00 62 1009.9
20260505184910 68 218 12.0 21.0 0.00 0.00 0.00 61 1010.1
20260505184411 68 223 11.0 23.0 0.00 0.00 0.00 60 1010.1
20260505183410 69 217 9.0 20.0 0.00 0.00 0.00 59 1010.1
20260505182911 70 221 8.0 17.0 0.00 0.00 0.00 59 1010.3
20260505181910 70 222 5.0 10.0 0.00 0.00 0.00 60 1010.6
20260505181411 70 244 5.0 10.0 0.00 0.00 0.00 60 1010.6
20260505180909 69 255 7.0 14.0 0.00 0.00 0.00 60 1010.8
20260505180410 69 247 7.0 13.0 0.00 0.00 0.00 60 1010.9
20260505175912 69 240 7.0 16.0 0.00 0.00 0.00 60 1010.8
20260505175407 69 256 6.0 13.0 0.00 0.00 0.00 60 1011.0
20260505174910 69 240 7.0 15.0 0.00 0.00 0.00 61 1011.0
20260505174410 69 216 8.0 16.0 0.00 0.00 0.00 61 1010.8
20260505173912 69 229 8.0 14.0 0.00 0.00 0.00 61 1010.7
20260505172910 69 214 10.0 15.0 0.00 0.00 0.00 60 1010.9
20260505172410 69 235 7.0 14.0 0.00 0.00 0.00 61 1010.9
20260505171410 69 248 7.0 13.0 0.00 0.00 0.00 61 1011.0
20260505170912 69 237 9.0 15.0 0.00 0.00 0.00 61 1011.1
20260505170410 69 229 7.0 15.0 0.00 0.00 0.00 61 1011.1
20260505165911 69 247 8.0 14.0 0.00 0.00 0.00 62 1011.1
20260505164910 69 226 6.0 13.0 0.00 0.00 0.00 61 1011.1
20260505164411 69 225 9.0 15.0 0.00 0.00 0.00 60 1011.1
20260505163908 69 214 7.0 12.0 0.00 0.00 0.00 61 1011.3
20260505163410 70 225 6.0 14.0 0.00 0.00 0.00 61 1011.4
20260505162413 69 248 5.0 12.0 0.00 0.00 0.00 62 1011.6
20260505161910 69 236 5.0 9.0 0.00 0.00 0.00 62 1011.6
20260505161407 69 249 6.0 9.0 0.00 0.00 0.00 62 1011.7
20260505160909 69 260 7.0 10.0 0.00 0.00 0.00 62 1011.8
20260505160410 69 239 7.0 13.0 0.00 0.00 0.00 62 1011.7
20260505152910 68 229 7.0 14.0 0.00 0.00 0.00 63 1011.9
20260505151910 68 255 6.0 10.0 0.00 0.00 0.00 63 1012.0
20260505151411 68 248 7.0 12.0 0.00 0.00 0.00 63 1012.2
20260505150905 68 235 6.0 10.0 0.00 0.00 0.00 64 1012.2
20260505150410 68 244 9.0 15.0 0.00 0.00 0.00 63 1012.3
20260505140410 67 230 6.0 12.0 0.00 0.00 0.00 66 1011.9
20260505124410 60 215 5.0 9.0 0.00 0.00 0.00 81 1011.7
20260505123911 60 232 5.0 9.0 0.00 0.00 0.00 80 1011.7
20260505123410 60 234 5.0 8.0 0.00 0.00 0.00 80 1011.7
20260505122911 60 237 6.0 10.0 0.00 0.00 0.00 81 1011.7
20260505122409 60 235 5.0 10.0 0.00 0.00 0.00 82 1011.8
20260505121410 59 235 6.0 9.0 0.00 0.00 0.00 83 1011.9
20260505120912 59 235 5.0 8.0 0.00 0.00 0.00 83 1011.7
20260505120407 59 237 5.0 9.0 0.00 0.00 0.00 83 1011.8
20260505115909 59 245 5.0 9.0 0.00 0.00 0.00 83 1011.8
20260505115410 59 240 5.0 9.0 0.00 0.00 0.00 84 1011.7
20260505114410 59 248 5.0 9.0 0.00 0.00 0.00 84 1011.7
20260505113906 59 238 2.0 7.0 0.00 0.00 0.00 84 1011.7
20260505113410 59 256 6.0 9.0 0.00 0.00 0.00 85 1011.8
20260505112911 58 246 4.0 9.0 0.00 0.00 0.00 86 1011.6
20260505112408 58 244 7.0 12.0 0.00 0.00 0.00 87 1011.7
20260505111410 56 271 4.0 9.0 0.00 0.00 0.00 87 1011.8
20260505110909 57 246 5.0 9.0 0.00 0.00 0.00 87 1011.9
20260505110410 56 255 6.0 8.0 0.00 0.00 0.00 88 1011.7
20260505101411 55 241 7.0 12.0 0.00 0.00 0.00 88 1011.0
20260505100912 54 241 6.0 9.0 0.00 0.00 0.00 88 1010.9
20260505100410 54 239 5.0 9.0 0.00 0.00 0.00 88 1010.8
20260505095911 54 237 3.0 9.0 0.00 0.00 0.00 88 1010.7
20260505095414 54 232 4.0 7.0 0.00 0.00 0.00 88 1010.7
20260505094911 54 236 4.0 7.0 0.00 0.00 0.00 88 1010.7
20260505094410 54 248 3.0 7.0 0.00 0.00 0.00 88 1010.7
20260505093915 54 238 5.0 8.0 0.00 0.00 0.00 88 1010.7
20260505093412 54 238 4.0 9.0 0.00 0.00 0.00 87 1010.6
20260505092406 54 252 4.0 7.0 0.00 0.00 0.00 87 1010.7
20260505091910 54 259 4.0 9.0 0.00 0.00 0.00 87 1010.6